Regional Weather Roundup
Issued by NWS State College, PA

Home | Current Version | Previous Version | Graphics & Text | Print | Product List | Glossary Off
Versions: 1 2 3 4 5 6 7 8 9 10 11 12 13 14 15 16 17 18 19 20 21 22 23 24 25 26 27 28 29 30 31 32 33 34 35 36 37 38 39 40 41 42 43 44 45 46 47 48 49 50

000
ASUS41 KCTP 280310
RWRCTP

REGIONAL WEATHER ROUNDUP
NATIONAL WEATHER SERVICE STATE COLLEGE PA
1100 PM EDT FRI MAY 27 2016

Note: "fair" indicates few or no clouds below 12,000 feet with no
significant weather and/or obstructions to visibility.

* = STATION THAT DOES NOT REPORT PRECIPITATION /E.G. RAIN...SNOW...ETC/
    THUNDER OR FOG.

PAZ002>004-007>009-013>016-020>023-029>032-280400-
WESTERN PENNSYLVANIA

CITY           SKY/WX    TMP DP  RH WIND       PRES   REMARKS
ERIE           PTCLDY    73  64  73 S3        30.02S
MEADVILLE      CLEAR     68  65  90 CALM      30.07R
FRANKLIN*      CLEAR     72  59  64 S3        30.10R
NEW CASTLE     FAIR      67  63  87 CALM      30.06R
BEAVER COUNTY  NOT AVBL
BUTLER*        CLEAR     70  63  78 CALM      30.10R
PITTSBURGH INT PTCLDY    76  63  64 CALM      30.06R
PITTSBURGH     CLEAR     77  60  55 S6        30.07R
INDIANA*       MOCLDY    73  64  73 CALM      30.12R
LATROBE        CLEAR     70  66  88 CALM      30.08S
WASHINGTON CO* PTCLDY    66  63  88 W3        30.09R
$$

PAZ004>006-010>012-017>019-024>028-033>037-041-042-045-046-049>053-280400-
CENTRAL PENNSYLVANIA

CITY           SKY/WX    TMP DP  RH WIND       PRES   REMARKS
BRADFORD       CLEAR     64  59  83 CALM      30.11R
DUBOIS         PTCLDY    70  60  70 CALM      30.09R
CLEARFIELD     PTCLDY    68  62  81 N5        30.09R
JOHNSTOWN      PTCLDY    70  58  65 SW5       30.14R
ALTOONA        PTCLDY    68  64  87 SW3       30.12R
STATE COLLEGE  PTCLDY    72  65  79 SW5       30.09S
WILLIAMSPORT   MOCLDY    71  66  84 CALM      30.04R
SELINSGROVE    CLOUDY    75  64  68 VRB3      30.07R
FT INDIANTOWN  CLOUDY    75  66  73 SW6       30.07S
CAPITAL CITY   PTCLDY    72  66  81 W3        30.08R
HARRISBURG     CLOUDY    74  67  78 VRB3      30.07R
YORK           CLOUDY    73  66  78 CALM      30.08R
$$

PAZ038>040-043-044-047-048-054-055-060>062-067>071-280400-
EASTERN PENNSYLVANIA

CITY           SKY/WX    TMP DP  RH WIND       PRES   REMARKS
SCRANTON       PTCLDY    73  65  75 CALM      30.06S
MOUNT POCONO   CLEAR     72  64  76 W6        30.12S
ALLENTOWN      CLEAR     76  66  71 SW5       30.06R
QUAKERTOWN*    CLEAR     77  68  73 SW3       30.09S
READING        PTCLDY    78  67  68 S10       30.06R
LANCASTER      MOCLDY    76  67  73 S7        30.07S
COATESVILLE    PTCLDY    75  66  73 VRB5      30.12R
POTTSTOWN      PTCLDY    77  68  73 S5        30.09R
BLUE BELL      CLEAR     77  66  69 SW7       30.08R
DOYLESTOWN     CLEAR     76  66  71 S5        30.07S
WILLOW GROVE   NOT AVBL
NORTH PHILA    CLEAR     79  65  62 S7        30.09R
PHILADELPHIA   PTCLDY    75  64  68 S7        30.09S
$$




USA.gov is the U.S. government's official web portal to all federal, state and local government web resources and services.